TimeAST,TemperatureF,Dew PointF,Humidity,Sea Level PressureIn,VisibilityMPH,Wind Direction,Wind SpeedMPH,Gust SpeedMPH,PrecipitationIn,Events,Conditions,WindDirDegrees,DateUTC
12:53 AM,80.1,71.1,74,29.96,10.0,ENE,5.8,-,N/A,,Clear,70,2012-11-04 04:53:00
1:53 AM,79.0,70.0,74,29.94,10.0,Calm,Calm,-,N/A,,Scattered Clouds,0,2012-11-04 05:53:00
2:53 AM,75.0,72.0,90,29.94,10.0,Calm,Calm,-,N/A,,Mostly Cloudy,0,2012-11-04 06:53:00
3:53 AM,75.0,72.0,90,29.92,10.0,Calm,Calm,-,N/A,,Clear,0,2012-11-04 07:53:00
4:53 AM,79.0,72.0,79,29.92,10.0,East,5.8,-,N/A,,Scattered Clouds,80,2012-11-04 08:53:00
5:53 AM,80.1,72.0,76,29.95,10.0,ENE,4.6,-,N/A,,Mostly Cloudy,70,2012-11-04 09:53:00
6:53 AM,80.1,71.1,74,29.96,10.0,ENE,5.8,-,N/A,,Clear,70,2012-11-04 10:53:00
7:53 AM,82.9,72.0,69,29.97,10.0,East,5.8,-,N/A,,Clear,80,2012-11-04 11:53:00
8:53 AM,84.0,72.0,67,29.99,10.0,East,6.9,-,N/A,,Partly Cloudy,90,2012-11-04 12:53:00
9:53 AM,86.0,73.0,65,30.00,10.0,ENE,9.2,-,N/A,,Partly Cloudy,70,2012-11-04 13:53:00
10:53 AM,87.1,73.9,65,29.99,10.0,ESE,9.2,19.6,N/A,,Partly Cloudy,110,2012-11-04 14:53:00
11:53 AM,87.1,73.9,65,29.97,10.0,ESE,12.7,-,N/A,,Partly Cloudy,120,2012-11-04 15:53:00
12:53 PM,87.1,73.0,63,29.96,10.0,East,10.4,-,N/A,,Scattered Clouds,100,2012-11-04 16:53:00
1:53 PM,87.1,72.0,61,29.94,10.0,East,9.2,-,N/A,,Clear,100,2012-11-04 17:53:00
2:53 PM,84.0,73.0,69,29.91,10.0,ENE,9.2,-,N/A,,Clear,60,2012-11-04 18:53:00
3:53 PM,84.9,75.0,72,29.91,10.0,NE,6.9,-,N/A,,Mostly Cloudy,40,2012-11-04 19:53:00
4:53 PM,82.9,73.9,74,29.92,10.0,ENE,6.9,-,N/A,,Overcast,60,2012-11-04 20:53:00
5:53 PM,81.0,73.9,79,29.94,10.0,North,-9999.0,-,N/A,,Scattered Clouds,0,2012-11-04 21:53:00
6:53 PM,80.1,75.0,85,29.94,10.0,NE,4.6,-,N/A,,Scattered Clouds,40,2012-11-04 22:53:00
7:53 PM,81.0,75.0,82,29.96,10.0,ENE,8.1,-,N/A,,Mostly Cloudy,70,2012-11-04 23:53:00
8:53 PM,81.0,73.9,79,29.97,10.0,East,5.8,-,N/A,,Partly Cloudy,80,2012-11-05 00:53:00
9:53 PM,81.0,73.0,77,29.96,10.0,East,5.8,-,N/A,,Clear,90,2012-11-05 01:53:00
10:41 PM,80.6,73.4,79,29.96,10.0,East,5.8,-,N/A,,Mostly Cloudy,80,2012-11-05 02:41:00
10:50 PM,80.6,73.4,79,29.96,10.0,ENE,5.8,-,N/A,,Scattered Clouds,70,2012-11-05 02:50:00
10:53 PM,81.0,73.9,79,29.96,10.0,ENE,5.8,-,N/A,,Partly Cloudy,70,2012-11-05 02:53:00
11:53 PM,81.0,73.0,77,29.95,10.0,ENE,6.9,-,N/A,,Partly Cloudy,70,2012-11-05 03:53:00